TimeEDT,TemperatureF,Dew PointF,Humidity,Sea Level PressureIn,VisibilityMPH,Wind Direction,Wind SpeedMPH,Gust SpeedMPH,PrecipitationIn,Events,Conditions,WindDirDegrees,DateUTC
12:54 AM,34.0,33.1,96,30.05,10.0,Calm,Calm,-,N/A,,Clear,0,2013-10-21 04:54:00
1:54 AM,33.1,32.0,96,30.06,10.0,Calm,Calm,-,N/A,,Clear,0,2013-10-21 05:54:00
2:54 AM,32.0,30.9,96,30.06,9.0,Calm,Calm,-,N/A,,Scattered Clouds,0,2013-10-21 06:54:00
3:54 AM,30.9,30.0,96,30.08,10.0,Calm,Calm,-,N/A,,Clear,0,2013-10-21 07:54:00
4:18 AM,30.2,30.2,100,30.06,2.0,Calm,Calm,-,N/A,,Partly Cloudy,0,2013-10-21 08:18:00
4:22 AM,30.2,30.2,100,30.06,0.8,Calm,Calm,-,N/A,,Scattered Clouds,0,2013-10-21 08:22:00
4:32 AM,30.2,30.2,100,30.07,0.5,Calm,Calm,-,N/A,Fog,Light Freezing Fog,0,2013-10-21 08:32:00
4:54 AM,30.9,30.0,96,30.08,1.8,Calm,Calm,-,N/A,,Overcast,0,2013-10-21 08:54:00
4:58 AM,30.2,30.2,100,30.07,4.0,Calm,Calm,-,N/A,,Overcast,0,2013-10-21 08:58:00
5:25 AM,30.2,30.2,100,30.07,1.8,Calm,Calm,-,N/A,,Overcast,0,2013-10-21 09:25:00
5:34 AM,30.2,30.2,100,30.07,0.5,Calm,Calm,-,N/A,Fog,Light Freezing Fog,0,2013-10-21 09:34:00
5:47 AM,30.2,30.2,100,30.08,1.2,Calm,Calm,-,N/A,,Overcast,0,2013-10-21 09:47:00
5:54 AM,30.0,28.9,96,30.09,2.5,Calm,Calm,-,N/A,,Overcast,0,2013-10-21 09:54:00
6:15 AM,30.2,28.4,93,30.08,7.0,Calm,Calm,-,N/A,,Mostly Cloudy,0,2013-10-21 10:15:00
6:28 AM,30.2,28.4,93,30.08,4.0,Calm,Calm,-,N/A,,Scattered Clouds,0,2013-10-21 10:28:00
6:30 AM,30.2,28.4,93,30.08,1.5,Calm,Calm,-,N/A,,Scattered Clouds,0,2013-10-21 10:30:00
6:34 AM,30.2,28.4,93,30.08,0.8,Calm,Calm,-,N/A,,Mist,0,2013-10-21 10:34:00
6:52 AM,30.2,28.4,93,30.09,0.2,Calm,Calm,-,N/A,Fog,Light Freezing Fog,0,2013-10-21 10:52:00
6:54 AM,30.0,28.9,96,30.11,0.2,Calm,Calm,-,N/A,Fog,Light Freezing Fog,0,2013-10-21 10:54:00
7:43 AM,30.2,28.4,93,30.10,1.2,Calm,Calm,-,N/A,,Mostly Cloudy,0,2013-10-21 11:43:00
7:45 AM,30.2,28.4,93,30.10,4.0,Calm,Calm,-,N/A,,Scattered Clouds,0,2013-10-21 11:45:00
7:54 AM,30.0,30.0,100,30.12,7.0,Calm,Calm,-,N/A,,Scattered Clouds,0,2013-10-21 11:54:00
7:57 AM,30.2,30.2,100,30.10,1.5,Calm,Calm,-,N/A,,Mostly Cloudy,0,2013-10-21 11:57:00
8:14 AM,30.2,30.2,100,30.10,3.0,Calm,Calm,-,N/A,,Mostly Cloudy,0,2013-10-21 12:14:00
8:54 AM,34.0,33.1,96,30.13,10.0,Calm,Calm,-,N/A,,Overcast,0,2013-10-21 12:54:00
9:54 AM,41.0,37.0,86,30.12,10.0,Calm,Calm,-,N/A,,Clear,0,2013-10-21 13:54:00
10:54 AM,48.0,39.0,71,30.09,10.0,Calm,Calm,-,N/A,,Clear,0,2013-10-21 14:54:00
11:54 AM,57.0,39.9,53,30.07,10.0,ESE,4.6,-,N/A,,Clear,120,2013-10-21 15:54:00
12:54 PM,61.0,39.0,44,30.05,10.0,SW,8.1,-,N/A,,Clear,220,2013-10-21 16:54:00
1:54 PM,63.0,37.0,38,30.02,10.0,Variable,6.9,-,N/A,,Clear,0,2013-10-21 17:54:00
2:54 PM,64.0,36.0,35,30.00,10.0,SSW,5.8,-,N/A,,Clear,200,2013-10-21 18:54:00
3:54 PM,63.0,37.9,40,29.99,10.0,Calm,Calm,-,N/A,,Clear,0,2013-10-21 19:54:00
4:54 PM,62.1,39.9,44,29.99,10.0,ESE,3.5,-,N/A,,Clear,120,2013-10-21 20:54:00
5:54 PM,59.0,41.0,51,29.99,10.0,SE,3.5,-,N/A,,Clear,140,2013-10-21 21:54:00
6:54 PM,53.1,43.0,69,30.00,10.0,NNW,4.6,-,N/A,,Clear,330,2013-10-21 22:54:00
7:54 PM,51.1,42.1,71,29.99,10.0,North,4.6,-,N/A,,Clear,350,2013-10-21 23:54:00
8:54 PM,46.0,42.1,86,29.99,10.0,Calm,Calm,-,N/A,,Clear,0,2013-10-22 00:54:00
9:54 PM,48.9,39.9,71,29.99,10.0,Calm,Calm,-,N/A,,Clear,0,2013-10-22 01:54:00
10:54 PM,51.1,37.9,61,29.97,10.0,South,6.9,-,N/A,,Clear,170,2013-10-22 02:54:00
11:54 PM,46.0,39.0,76,29.95,10.0,Calm,Calm,-,N/A,,Clear,0,2013-10-22 03:54:00